[Iaude] MPEC J57: 2024 JD1 [a=1.19,e=0.14,i=9.1,H=25.3]
    mpec at cfa.harvard.edu 
    mpec at cfa.harvard.edu
       
    Sat May  4 03:07:50 EDT 2024
    
    
  
M.P.E.C. 2024-J57                                   Issued 2024 May 4, 07:06 UT
     The Minor Planet Electronic Circulars contain information on unusual
         minor planets, routine data on comets and natural satellites,
         and occasional editorial announcements.  They are published
    on behalf of Division F of the International Astronomical Union by the
          Minor Planet Center, Smithsonian Astrophysical Observatory,
                          Cambridge, MA 02138, U.S.A.
			  
             Prepared using the Tamkin Foundation Computer Network
                              MPC at CFA.HARVARD.EDU
            URL https://www.minorplanetcenter.net/    ISSN 1523-6714
                                    2024 JD1                                    
Observations:
     K24J01D* C2024 05 02.42662615 48 02.360-01 00 48.73         20.93wXEJ057F52
     K24J01D  C2024 05 02.43715315 48 01.784-01 01 41.55         20.92wXEJ057F52
     K24J01D  C2024 05 02.44769815 48 01.208-01 02 34.26         21.30wXEJ057F52
     K24J01D  C2024 05 02.45826315 48 00.621-01 03 27.31         21.55wXEJ057F52
     K24J01D  C2024 05 02.61799115 47 52.301-01 16 51.60         21.38GVEJ057F52
     K24J01D  C2024 05 02.61864315 47 52.276-01 16 54.82         20.84GVEJ057F52
     K24J01D 1C2024 05 03.03886 15 47 50.81 -01 53 51.7          20.8 VXEJ057033
     K24J01D 1C2024 05 03.04103 15 47 50.73 -01 54 02.5          20.6 VXEJ057033
     K24J01D 1C2024 05 03.04319 15 47 50.61 -01 54 14.9          20.8 VXEJ057033
     K24J01D KB2024 05 03.31434 15 47 47.143-02 17 57.34         20.5 RZEJ057H36
     K24J01D KB2024 05 03.33882 15 47 45.766-02 20 08.63         20.6 RZEJ057H36
     K24J01D KB2024 05 03.35175 15 47 45.139-02 21 18.58         20.6 RZEJ057H36
     K24J01D KC2024 05 04.26237615 47 32.93 -03 45 56.1          20.3 GXEJ057858
     K24J01D KC2024 05 04.26697015 47 32.64 -03 46 22.7          20.5 GXEJ057858
     K24J01D KC2024 05 04.27546215 47 32.15 -03 47 12.0          20.7 GXEJ057858
Observer details:
033 Karl Schwarzschild Observatory, Tautenburg.  Observers S. Melnikov, C.
    Hogner, F. Ludwig, M. Hartmann, B. Stecklum.  Measurer B. Stecklum.
    1.34-m f/3 Schmidt + CCD.
858 Tebbutt Observatory, Edgewood.  Observer F. B. Zoltowski.  0.51-m f/8.1
    Schmidt-Cassegrain + CCD.
F52 Pan-STARRS 2, Haleakala.  Observers J. Herman, T. Lowe, P. Minguez, A.
    Schultz, I. Smith.  Measurers K. Chambers, T. de Boer, J. Fairlamb, H.
    Gao, M. Huber, C.-C. Lin, E. Magnier, Y. Ramanjooloo, R. Wainscoat, R.
    Weryk.  1.8-m Ritchey-Chretien + CCD.
H36 Sandlot Observatory, Scranton.  Observer G. Hug.  0.56-m f/4.8 reflector +
    CMO.
Orbital elements:
2024 JD1                                                 Earth MOID = 0.0486 AU
Epoch 2024 Mar. 31.0 TT = JDT 2460400.5                 MPC                     
M 293.52144              (2000.0)            P               Q                  
n   0.75884414     Peri.  225.04210     +0.10687262     +0.98659396             
a   1.1904221      Node    51.49193     -0.86210733     +0.15374590             
e   0.1350101      Incl.    9.06807     -0.49532736     -0.05472258             
P   1.30           H   25.34          G   0.15           U   8                  
Residuals in seconds of arc
240502 F52  0.0   0.0     240502 F52  0.1+  0.1+    240503 H36  0.7-  0.3+
240502 F52  0.1-  0.1-    240503 033  0.1-  0.2-    240503 H36  0.1+  0.2-
240502 F52  0.1-  0.1-    240503 033  0.2+  0.4+    240504 858  0.3+  0.0
240502 F52  0.0   0.2-    240503 033  0.2-  0.7-    240504 858  0.1-  0.0
240502 F52  0.0   0.0     240503 H36  0.3+  0.1+    240504 858  0.1-  0.0
Ephemeris:
2024 JD1                 a,e,i = 1.19, 0.14, 9                   q = 1.0297
Date    TT    R. A. (2000) Decl.     Delta      r    Elong.  Phase     V
2024 04 04    15 34 55.8 +14 11 02   0.1832  1.1374   135.2    38.3    23.5
...
2024 04 19    15 45 58.7 +10 22 47   0.1242  1.1068   143.7    32.5    22.4
...
2024 04 27    15 48 15.1 +05 06 04   0.09648 1.0917   150.7    26.8    21.7
...
2024 05 03    15 47 52.2 -01 48 54   0.07799 1.0810   158.5    20.0    21.0
2024 05 04    15 47 35.2 -03 19 37   0.07517 1.0793   160.1    18.6    20.8
2024 05 05    15 47 13.9 -04 57 50   0.07244 1.0776   161.8    17.0    20.7
...
2024 05 11    15 43 20.0 -17 54 24   0.05842 1.0679   172.6     7.0    19.8
...
2024 05 19    15 30 58.8 -44 05 32   0.04898 1.0564   155.5    23.4    20.0
...
2024 06 03    10 10 11.2 -85 25 16   0.06466 1.0398   111.5    65.1    21.8
A. U. Tomatic                (C) Copyright 2024 MPC           M.P.E.C. 2024-J57
    
    
More information about the Iaude
mailing list